This demonstration page uses our WeatherBlox Daily Observations layout. Learn more.

39.08367, -84.50855

Hourly Observations for January 16, 2021

Temp ( °F °C ) Dew Point ( °F °C ) Humidity (%) Winds ( mph kmh ) Pressure ( in mb ) Visibility ( mi km ) Precip ( " mm )
12:53 am 00:53 Cloudy 33 0.6 28 -2.2 82 82 S 7 11 29.65 1004 10 16.0934 0 0
1:32 am 01:32 Cloudy with Light Snow 34 1.1 29 -1.7 82 82 WSW 8 13 29.67 1005 8 12.87472 0.001 0.001
1:53 am 01:53 Cloudy with Light Snow 34 1.1 30 -1.1 85 85 WSW 5 7 29.65 1004 4 6.43736 0.001 0.001
2:11 am 02:11 Cloudy with Light Snow 34 1.1 29 -1.7 82 82 W 9 15 29.67 1005 6 9.65604 0.001 0.001
2:53 am 02:53 Cloudy 32 0 29 -1.7 88 88 WSW 3 6 29.65 1004 10 16.0934 0.001 0.001
3:25 am 03:25 Mostly Cloudy 32 0 29 -1.7 88 88 Calm 29.67 1005 10 16.0934 0 0
3:53 am 03:53 Cloudy 31 -0.6 28 -2.2 89 89 SSW 3 6 29.65 1004 10 16.0934 0 0
4:01 am 04:01 Cloudy 30 -1.1 28 -2.2 92 92 S 3 6 29.67 1005 10 16.0934 0 0
4:53 am 04:53 Cloudy 32 0 28 -2.2 85 85 SSW 5 7 29.65 1004 10 16.0934 0 0
5:42 am 05:42 Cloudy 32 0 28 -2.2 85 85 SSW 6 9 29.66 1004 10 16.0934 0 0
5:53 am 05:53 Cloudy 31 -0.6 28 -2.2 89 89 SSW 5 7 29.64 1004 10 16.0934 0 0
6:53 am 06:53 Mostly Cloudy 29 -1.7 27 -2.8 92 92 S 3 6 29.65 1004 10 16.0934 0 0
7:53 am 07:53 Cloudy 30 -1.1 28 -2.2 92 92 SSW 5 7 29.66 1005 10 16.0934 0 0
8:53 am 08:53 Cloudy with Light Snow 31 -0.6 29 -1.7 92 92 S 3 6 29.68 1005 4 6.43736 0.001 0.001
9:53 am 09:53 Cloudy 33 0.6 29 -1.7 85 85 Calm 29.7 1006 10 16.0934 0.01 0.254
10:53 am 10:53 Cloudy 34 1.1 27 -2.8 76 76 W 12 19 29.71 1006 10 16.0934 0 0
11:53 am 11:53 Cloudy 35 1.7 27 -2.8 72 72 W 9 15 29.7 1006 10 16.0934 0 0
12:53 pm 12:53 Cloudy 35 1.7 25 -3.9 67 67 WSW 13 20 29.69 1005 10 16.0934 0 0
1:53 pm 13:53 Cloudy 36 2.2 25 -3.9 64 64 WSW 14 22 29.69 1005 10 16.0934 0 0
2:53 pm 14:53 Cloudy 36 2.2 26 -3.3 67 67 SW 14 22 29.7 1006 10 16.0934 0 0
3:53 pm 15:53 Cloudy with Light Snow 36 2.2 25 -3.9 64 64 WSW 14 22 29.72 1006 8 12.87472 0.001 0.001
4:50 pm 16:50 Cloudy with Light Snow 34 1 30 -1 87 87 SW 9 15 29.77 1008 1.25 2.011675 0.001 0.001
4:53 pm 16:53 Cloudy with Light Snow 33 0.6 30 -1.1 89 89 SSW 9 15 29.75 1007 3 4.82802 0.001 0.001
5:53 pm 17:53 Cloudy with Light Snow 33 0.6 30 -1.1 89 89 SSW 10 17 29.75 1008 3 4.82802 0.01 0.254
6:53 pm 18:53 Cloudy with Light Snow 34 1.1 30 -1.1 85 85 SW 10 17 29.76 1008 4 6.43736 0.01 0.254
7:53 pm 19:53 Cloudy with Light Snow 34 1.1 31 -0.6 89 89 SW 12 19 29.77 1008 8 12.87472 0.01 0.254
8:53 pm 20:53 Cloudy 35 1.7 31 -0.6 85 85 WSW 12 19 29.77 1008 10 16.0934 0.001 0.001
9:53 pm 21:53 Cloudy 35 1.7 31 -0.6 85 85 WSW 12 19 29.78 1008 10 16.0934 0 0
10:53 pm 22:53 Cloudy 35 1.7 31 -0.6 85 85 WSW 9 15 29.79 1009 10 16.0934 0 0
11:53 pm 23:53 Cloudy 36 2.2 31 -0.6 82 82 WSW 9 15 29.79 1009 10 16.0934 0 0

Powered by AerisWeather